{"data":{"norad_id":67055,"epoch":"2026-09-20T09:17:39.289056Z","epoch_age_seconds":91432,"freshness":"FRESH","line1":"1 67055U 25294AB  26263.38726029  .00007129  00000+0  26832-3 0  9993","line2":"2 67055  43.0017  18.6952 0001908 271.0708  88.9925 15.27581871 44570","mean_motion":15.27581871,"eccentricity":0.0001908,"inclination_deg":43.0017,"raan_deg":18.6952,"arg_perigee_deg":271.0708,"mean_anomaly_deg":88.9925,"bstar":0.00026832,"rev_number":4457,"period_min":94.266633254644,"perigee_km":481.7343803601,"apogee_km":484.35260683646,"semimajor_km":6861.1804935983,"source":"CELESTRAK","updated_at":"2026-09-21T09:00:36.096270Z"}}